Location: ???????
(55.3754°N, 39.3545°E)
Time: 06:50:31
(UTC+00:00)

Spot 1 - Pass Details

Date: 14 April 2026
Orbit: 566 x 748 km, 98.7° (Epoch: 10 May)

Event Time Altitude Azimuth Distance (km) Brightness Sun altitude
Rises 22:55:31 0° 15° (NNE) 2,780 8.9 -22.1°
Reaches altitude 10° 22:57:40 10° 15° (NNE) 1,878 7.6 -22.0°
Maximum altitude 23:01:42 83° 289° (WNW) 584 3.8 -21.7°
Enters shadow 23:02:04 73° 223° (SW) 606 3.7 -21.7°
